Date String (YYYY-MM-DD hh:mm:ss) UTC,Instrument flags,absolute air pressure of the measurement (hPa),sample flow rate (lpm),inlet stack bypass flow (lpm),air temperature of the measurement (°C),ambient temperature measured by the external sensor (°C),aerosol sample conditioner tube jacket temperature (°C),OPC LED temperature (°C),internal box temperature (°C),relative humidity of the measurement (%),span deviation,mass concentration of particles derived from Lorenz-Mie calculation of OPC scattering (μg/m³),mass concentration of particles derived from Lorenz-Mie calculation of OPC scattering (μg/m³),mass concentration of particles derived from Lorenz-Mie calculation of OPC scattering (μg/m³)
DateTimeUTC,F1_M11,P_M11,Q1_M11,Q2_M11,T1_M11,T2_M11,T3_M11,T4_M11,T5_M11,U1_M11,ZSPAN_M11,X0_M11,X2_M11,X1_M11
2024-02-19 13:00:00,SystemResetWarning,0825.0,4.99,000.00,018.3,017.4,000.0,026.9,020.0,11.9,0000.0,0000.92,0000.39,0000.28
2024-02-19 13:01:00,SystemResetWarning,0825.1,4.99,000.00,018.3,017.4,000.0,026.9,020.0,11.8,0000.0,0001.05,0000.43,0000.27
2024-02-19 13:02:00,SystemResetWarning,0825.0,5.01,000.00,018.3,017.5,000.0,027.0,020.1,11.7,0000.0,0001.13,0000.46,0000.28
2024-02-19 13:03:00,SystemResetWarning,0824.9,5.01,000.00,018.5,018.3,000.0,027.1,020.5,11.9,0000.0,0001.14,0000.47,0000.28
2024-02-19 13:04:00,SystemResetWarning,0824.9,4.99,000.00,018.7,019.0,000.0,027.1,020.9,11.6,0000.0,0001.04,0000.48,0000.29
2024-02-19 13:05:00,SystemResetWarning,0824.9,4.99,000.00,018.8,018.9,000.0,027.0,020.7,11.2,0000.0,0001.02,0000.48,0000.29
2024-02-19 13:06:00,SystemResetWarning,0825.0,5.00,000.00,018.7,018.7,000.0,027.0,020.6,11.2,0000.0,0000.93,0000.49,0000.29
2024-02-19 13:07:00,SystemResetWarning,0824.9,5.01,000.00,018.7,018.6,000.0,026.9,020.5,11.3,0000.0,0000.85,0000.48,0000.29
2024-02-19 13:08:00,SystemResetWarning,0825.0,5.00,000.00,018.7,018.4,000.0,026.9,020.4,11.7,0000.0,0000.88,0000.48,0000.29
2024-02-19 13:09:00,SystemResetWarning,0825.0,5.00,000.00,018.6,018.3,000.0,026.9,020.3,11.9,0000.0,0000.94,0000.50,0000.30
2024-02-19 13:10:00,SystemResetWarning,0824.8,4.99,000.00,018.6,018.1,000.0,026.9,020.2,11.8,0000.0,0000.96,0000.52,0000.31
2024-02-19 13:11:00,SystemResetWarning,0825.0,5.00,000.00,018.6,018.0,000.0,026.9,020.1,11.6,0000.0,0000.94,0000.51,0000.31
2024-02-19 13:12:00,SystemResetWarning,0824.9,5.00,000.00,018.5,017.9,000.0,026.9,020.1,11.8,0000.0,0000.84,0000.47,0000.31
2024-02-19 13:13:00,SystemResetWarning,0824.8,5.00,000.00,018.5,017.8,000.0,026.9,020.1,11.8,0000.0,0001.24,0000.45,0000.31
2024-02-19 13:14:00,SystemResetWarning,0824.9,5.00,000.00,018.4,017.7,000.0,026.9,020.0,11.6,0000.0,0001.52,0000.47,0000.32
2024-02-19 13:15:00,SystemResetWarning,0824.9,5.01,000.00,018.4,017.7,000.0,026.9,020.0,11.6,0000.0,0002.07,0000.46,0000.32
2024-02-19 13:16:00,SystemResetWarning,0825.0,5.01,000.00,018.4,017.7,000.0,026.9,020.0,11.8,0000.0,0003.48,0000.44,0000.32
2024-02-19 13:17:00,SystemResetWarning,0825.1,4.99,000.00,018.4,017.6,000.0,026.9,020.0,12.0,0000.0,0004.45,0000.43,0000.32
2024-02-19 13:18:00,SystemResetWarning,0824.9,4.99,000.00,018.4,017.6,000.0,026.9,020.0,11.8,0000.0,0004.51,0000.44,0000.32
2024-02-19 13:19:00,SystemResetWarning,0824.8,5.02,000.00,018.4,017.5,000.0,026.9,020.0,11.6,0000.0,0004.59,0000.47,0000.33
2024-02-19 13:20:00,SystemResetWarning,0824.7,5.01,000.00,018.3,017.4,000.0,026.9,020.0,11.7,0000.0,0004.85,0000.49,0000.34
2024-02-19 13:21:00,SystemResetWarning,0824.8,5.00,000.00,018.3,017.4,000.0,026.9,020.0,11.9,0000.0,0005.13,0000.53,0000.35
2024-02-19 13:22:00,SystemResetWarning,0824.9,4.99,000.00,018.3,017.4,000.0,026.9,020.0,12.1,0000.0,0005.20,0000.55,0000.36
2024-02-19 13:23:00,SystemResetWarning,0824.7,4.99,000.00,018.3,017.4,000.0,026.9,020.0,12.1,0000.0,0005.22,0000.57,0000.37
2024-02-19 13:24:00,SystemResetWarning,0824.7,5.00,000.00,018.3,017.3,000.0,026.9,020.0,12.2,0000.0,0004.74,0000.57,0000.37
2024-02-19 13:25:00,SystemResetWarning,0824.9,5.01,000.00,018.3,017.3,000.0,026.9,020.0,12.4,0000.0,0004.78,0000.63,0000.39
2024-02-19 13:26:00,SystemResetWarning,0824.9,5.00,000.00,018.3,017.3,000.0,026.9,020.0,12.5,0000.0,0004.23,0000.64,0000.39
2024-02-19 13:27:00,SystemResetWarning,0824.8,5.00,000.00,018.4,017.7,000.0,027.0,020.2,12.2,0000.0,0002.92,0000.65,0000.40
2024-02-19 13:28:00,SystemResetWarning,0824.9,5.01,000.00,018.6,018.6,000.0,027.1,020.7,11.6,0000.0,0002.93,0000.66,0000.40
2024-02-19 13:29:00,SystemResetWarning,0824.9,4.98,000.00,018.8,019.0,000.0,027.1,020.9,11.5,0000.0,0003.92,0000.68,0000.42
2024-02-19 13:30:00,SystemResetWarning,0824.9,4.99,000.00,018.8,018.8,000.0,027.0,020.7,11.5,0000.0,0004.86,0000.66,0000.43
2024-02-19 13:31:00,SystemResetWarning,0824.8,5.01,000.00,018.7,018.7,000.0,027.0,020.6,11.8,0000.0,0004.71,0000.68,0000.43
2024-02-19 13:32:00,SystemResetWarning,0825.0,5.01,000.00,018.7,018.5,000.0,027.0,020.4,11.7,0000.0,0004.50,0000.66,0000.42
2024-02-19 13:33:00,SystemResetWarning,0825.0,4.98,000.00,018.7,018.3,000.0,026.9,020.3,11.6,0000.0,0004.47,0000.66,0000.43
2024-02-19 13:34:00,SystemResetWarning,0825.1,5.00,000.00,018.6,018.1,000.0,026.9,020.3,11.5,0000.0,0004.65,0000.68,0000.43
2024-02-19 13:35:00,SystemResetWarning,0825.0,5.02,000.00,018.6,018.0,000.0,026.9,020.2,11.6,0000.0,0006.59,0000.70,0000.44
2024-02-19 13:36:00,SystemResetWarning,0825.1,4.99,000.00,018.6,017.9,000.0,026.9,020.1,11.3,0000.0,0006.42,0000.68,0000.44
2024-02-19 13:37:00,SystemResetWarning,0824.9,4.99,000.00,018.5,017.8,000.0,026.9,020.1,11.6,0000.0,0006.83,0000.70,0000.45
2024-02-19 13:38:00,SystemResetWarning,0825.0,5.01,000.00,018.5,017.7,000.0,026.9,020.0,11.8,0000.0,0007.41,0000.72,0000.45
2024-02-19 13:39:00,SystemResetWarning,0825.0,5.01,000.00,018.5,017.7,000.0,026.9,020.0,11.9,0000.0,0006.37,0000.73,0000.46
2024-02-19 13:40:00,SystemResetWarning,0825.0,4.99,000.00,018.4,017.6,000.0,026.9,020.0,11.7,0000.0,0005.63,0000.74,0000.46
2024-02-19 13:41:00,SystemResetWarning,0825.0,4.99,000.00,018.4,017.5,000.0,026.9,020.0,11.8,0000.0,0004.57,0000.73,0000.45
2024-02-19 13:42:00,SystemResetWarning,0825.1,5.01,000.00,018.4,017.5,000.0,026.9,020.0,11.9,0000.0,0004.51,0000.71,0000.45
2024-02-19 13:43:00,SystemResetWarning,0825.1,5.01,000.00,018.4,017.4,000.0,027.0,020.0,12.0,0000.0,0004.54,0000.72,0000.46
2024-02-19 13:44:00,SystemResetWarning,0824.9,5.00,000.00,018.4,017.4,000.0,026.9,020.0,12.1,0000.0,0004.61,0000.75,0000.46
2024-02-19 13:45:00,SystemResetWarning,0825.0,5.01,000.00,018.4,017.4,000.0,026.9,020.0,11.9,0000.0,0004.32,0000.73,0000.46
2024-02-19 13:46:00,SystemResetWarning,0825.1,4.99,000.00,018.4,017.4,000.0,026.9,020.0,11.8,0000.0,0002.54,0000.76,0000.45
2024-02-19 13:47:00,SystemResetWarning,0825.2,4.99,000.00,018.4,017.3,000.0,026.9,020.0,12.1,0000.0,0002.46,0000.73,0000.45
2024-02-19 13:48:00,SystemResetWarning,0825.0,5.00,000.00,018.4,017.3,000.0,026.9,020.0,12.2,0000.0,0002.70,0000.75,0000.45
2024-02-19 13:49:00,SystemResetWarning,0825.0,4.99,000.00,018.3,017.3,000.0,026.9,020.0,12.1,0000.0,0002.34,0000.75,0000.45
2024-02-19 13:50:00,SystemResetWarning,0824.9,5.02,000.00,018.4,017.8,000.0,027.0,020.3,11.8,0000.0,0003.62,0000.77,0000.45
2024-02-19 13:51:00,SystemResetWarning,0825.1,5.00,000.00,018.6,018.7,000.0,027.1,020.8,11.7,0000.0,0003.98,0000.77,0000.45
2024-02-19 13:52:00,SystemResetWarning,0825.1,4.99,000.00,018.8,018.9,000.0,027.1,020.9,11.6,0000.0,0004.30,0000.81,0000.45
2024-02-19 13:53:00,SystemResetWarning,0825.0,4.99,000.00,018.8,018.8,000.0,027.0,020.7,11.8,0000.0,0004.30,0000.82,0000.45
2024-02-19 13:54:00,SystemResetWarning,0824.9,5.01,000.00,018.8,018.7,000.0,027.0,020.6,11.8,0000.0,0005.24,0000.83,0000.46
2024-02-19 13:55:00,SystemResetWarning,0825.1,5.01,000.00,018.7,018.5,000.0,027.0,020.4,11.7,0000.0,0005.55,0000.83,0000.45
2024-02-19 13:56:00,SystemResetWarning,0825.2,4.99,000.00,018.7,018.4,000.0,027.0,020.4,11.7,0000.0,0005.68,0000.86,0000.46
2024-02-19 13:57:00,SystemResetWarning,0825.0,4.99,000.00,018.7,018.2,000.0,027.0,020.3,11.6,0000.0,0006.89,0000.87,0000.46
2024-02-19 13:58:00,SystemResetWarning,0825.2,5.01,000.00,018.6,018.1,000.0,027.0,020.2,11.7,0000.0,0007.58,0000.89,0000.46
2024-02-19 13:59:00,SystemResetWarning,0825.2,5.00,000.00,018.6,018.0,000.0,027.0,020.2,11.7,0000.0,0007.72,0000.91,0000.47
